Regional Weather Roundup
Issued by NWS

Home | Current Version | Previous Version | Text Only | Print | Product List | Glossary On
Versions: 1 2 3 4 5 6 7 8 9 10 11 12 13 14 15 16 17 18 19 20 21 22 23 24 25 26 27 28 29 30 31 32 33 34 35 36 37 38 39 40 41 42 43 44 45 46 47 48 49 50
000
ASUS44 KJAN 160810
RWRMS

MISSISSIPPI HOURLY WEATHER ROUNDUP
NATIONAL WEATHER SERVICE JACKSON MS
300 AM CDT WED APR 16 2014

NOTE: "FAIR: INDICATES FEW OR NO CLOUDS BELOW 12,000 FEET WITH NO
SIGNIFICANT WEATHER AND/OR OBSTRUCTIONS TO VISIBILITY.

MSZ001>002-007>008-010>013-018>021-025>028-034>036-160900-
NORTHWEST MISSISSIPPI

CITY           SKY/WX    TMP DP  RH WIND       PRES   REMARKS
CLARKSDALE       N/A     37  32  81 CALM      30.25S
CLEVELAND      FAIR      38  35  87 CALM      30.23F
GREENWOOD      CLEAR     36  29  75 E6        30.23F WCI  31
GREENVILLE     CLEAR     41  31  67 E6        30.22S
GRENADA        FAIR      36  28  75 NE5       30.24S WCI  32
OLIVE BRANCH   CLEAR     32  32 100 CALM      30.25S
OXFORD         FAIR      28  27  93 CALM      30.25R
TUNICA         SUNNY     36  32  87 CALM      30.25S
$$

MSZ003>006-009-014>017-022>024-029>033-037>039-160900-
NORTHEAST MISSISSIPPI

CITY           SKY/WX    TMP DP  RH WIND       PRES   REMARKS
BELMONT        FAIR      32  28  83 CALM      30.23F
COLUMBUS AFB   CLEAR     37  29  73 N6        30.23F WCI  32
CORINTH        FAIR      32  28  86 CALM      30.25S
GOLDN TRIANGLE CLEAR     36  27  69 NE7       30.25S WCI  30
STARKVILLE     FAIR      34  32  93 CALM      30.22S
TUPELO         CLEAR     33  28  81 NE5       30.24S WCI  29
$$

MSZ040-058-160900-
CENTRAL MISSISSIPPI

CITY           SKY/WX    TMP DP  RH WIND       PRES   REMARKS
JACKSON INTL   CLEAR     40  31  70 N7        30.21S
JACKSON HAWKNS CLEAR     41  30  65 N5        30.21S
MERIDIAN KEY   CLEAR     39  29  67 NE7       30.20F WCI  34
MERIDIAN NAS   CLEAR     37  30  75 VRB3      30.21S
RAYMOND        FAIR      34  30  86 MISG      30.22S
VICKSBURG      CLEAR     44  34  67 NE7       30.22S
$$

MSZ059>079-160900-
SOUTH MISSISSIPPI

CITY           SKY/WX    TMP DP  RH WIND       PRES   REMARKS
BROOKHAVEN     FAIR      36  34  93 N3        30.21R
COLUMBIA       FAIR      36  34  93 MISG      30.18R
HATTIESBURG    CLEAR     39  33  79 NW3       30.19S
MCCOMB         CLEAR     39  32  76 N6        30.18S WCI  35
NATCHEZ          N/A     39  30  70 NE7       30.18F WCI  34
PINE BELT      CLEAR     37  30  75 N7        30.17S WCI  32
$$

MSZ080>082-160900-
COASTAL MISSISSIPPI

CITY           SKY/WX    TMP DP  RH WIND       PRES   REMARKS
BILOXI         CLEAR     42  35  76 NE6       30.15F
PASCAGOULA     CLEAR     41  32  70 NE5       30.16F
GULFPORT       CLEAR     44  33  65 N3        30.16S
$$



USA.gov is the U.S. government's official web portal to all federal, state and local government web resources and services.